Location: Pian di Sc�
(43.6333°N, 11.5500°E)
Time: 14:10:06
(UTC+00:00)

H-2A R/B - Pass Details

Date: 07 August 2020
Orbit: 578 x 654 km, 98.5° (Epoch: 24 September)

Event Time Altitude Azimuth Distance (km) Brightness Sun altitude
Rises 02:06:54 0° 143° (SE) 2,811 5.3 -18.9°
Reaches altitude 10° 02:09:11 10° 134° (SE) 1,906 4.6 -18.6°
Maximum altitude 02:12:55 34° 69° (ENE) 964 3.6 -18.1°
Drops below altitude 10° 02:16:38 10° 4° (N) 1,903 5.3 -17.7°
Sets 02:18:55 0° 355° (N) 2,806 6.0 -17.4°
